RESURS O1 DEB, 23344

Orbit data source: Space-Track

RESURS O1 DEB, 23344 is space debris in SSO originally from a launch on Fri, 04 Nov 1994 UTC launched from the Tyuratam Missile And Space Complex (TTMTR). Debris objects in space refer to the collection of defunct objects orbiting the Earth. Examples of debris include non-operational satellites, rocket bodies, and fragments generated from explosions, collisions, or faulty payload assembly.

Loading next visibility...
Identifier
23344, 1994-074C
Orbit
SSO
Country
Flag of CISCIS
Related business
Manufacturer
Yuzhnoe
Mission
Spacecraft
Bus & Motor
SEP MOTOR COVER, Unknown motor
Mass
~0 kg wet, ~1 kg dry
Launch date (UTC)
1994-11-04 (31 years ago)
Launch vehicle
Unknown
Launch site
Tyuratam Missile And Space Complex (TTMTR)
Object type
Payload
Rocket body
Debris
Shape & HBR
Unknown shape, 0.2 m
Radar Cross Section
Small (<0.1 m²)

Expand to show TLE details & history
Last TLE update: 6 hours ago

TLE from 6 hours ago
0 RESURS O1 DEB
1 23344U 94074C   25286.98532297  .00001725  00000-0  34110-3 0  9995
2 23344  97.9702 300.0425 0119026 128.7284 262.7416 14.59172221637320
Epoch: 2025-10-13T23:38Z
TLE epoch observation values (Epoch: 2025-10-13T23:38:51.904Z)
Latitude
29.85072°
Longitude
-82.03788°
Altitude
711.262 km
Speed
7.497 km/s
True Right ascension
19h 41m 50s
True Declination
29° 42' 05"
Sunlit
Object was in daylight at epoch
Visualization orbit readout
Latitude
Unknown
Longitude
Unknown
Altitude
Unknown
Speed
Unknown
Apparent Right ascension
Unknown
Apparent Declination
Unknown
Sunlit
N/A
Visualization observer readout
Local Sidereal Time
00:03:40
Azimuth
Unknown
Elevation
Unknown
Doppler factor
Unknown
Orbital elements
Apogee altitude
777.083 km
Perigee altitude
608.755 km
Semi-major axis
7,071.056 km
Eccentricity
0.0119
Inclination
97.9702°
RAAN
300.0425°
Arg. of periapsis
128.7284°
True anomaly
261.39126°
Mean anomaly
262.7416°
Eccentric anomaly
262.06616°
Mean motion
3.6502 °/min
Orbital period
98.62 mins
BSTAR
0.0003411
Loading maneuver chart data...
Computing Atmospheric mass density...

Documentation

Showing up to 5 results
|